Flag for Poland Weather past 2 weeks in Warsaw, Poland

Now
48 °F

Passing clouds.


Feels Like: 44 °F
Forecast: 39 / 46 °F
Wind: 10 mph from Southwest

Location: Warsaw Okecie Airport

Current Time: Dec 19, 2014 at 4:42:35 AM

Latest Report: Dec 19, 2014 at 4:00 AM


Visibility: N/A

Pressure: 29.68 "Hg

Humidity: 94%

Dew point: 46 °F

Location of WarsawLocation

Historic Weather in Warsaw — Graph

°F

Warsaw temperature yesterday

Maximum temperature yesterday: 46 °F (at 10:30 PM)
Minimum temperature yesterday: 32 °F (at 12:00 AM)
Average temperature yesterday: 39 °F

Past Weeks' High & Low Weather Summary

 TemperatureHumidityPressure
High50 °F (Dec 13, 7:00 AM)100% (Dec 5, 12:00 AM)30.42 "Hg (Dec 5, 12:00 AM)
Low23 °F (Dec 9, 9:00 PM)57% (Dec 13, 1:00 AM)29.56 "Hg (Dec 13, 2:00 AM)
Average36 °F91%30.00 "Hg
* Reported Dec 4 3:00 AM — Dec 19 3:30 AM, Warsaw, Weather by CustomWeather, © 2014

Note: Actual official high and low records may vary slightly from our data, if they occured in-between our weather recording intervals... More about our weather records

Advertising

Warsaw weather history for previous 24 hours

 ConditionsComfort  
Time TempWeatherWind HumidityBarometerVisibility
3:30 AM
Dec 19
48 °FLight rain. Low clouds.10 mph94%29.68 "HgN/A
3:00 AM46 °FLight rain. Mostly cloudy.10 mph93%29.68 "HgN/A
2:30 AM46 °FLight rain. Mostly cloudy.12 mph93%29.68 "HgN/A
2:00 AM46 °FLight rain. Mostly cloudy.12 mph93%29.68 "HgN/A
1:30 AM46 °FLight rain. Mostly cloudy.13 mph93%29.71 "HgN/A
1:00 AM46 °FLight rain. Mostly cloudy.12 mph93%29.71 "HgN/A
12:30 AM46 °FLight rain. Overcast.12 mph93%29.71 "HgN/A
12:00 AM46 °FLight rain. Overcast.10 mph87%29.74 "HgN/A
11:30 PM
Dec 18
46 °FLight rain. Overcast.10 mph87%29.74 "HgN/A
11:00 PM46 °FPassing clouds.10 mph82%29.74 "HgN/A
10:30 PM46 °FPassing clouds.9 mph82%29.77 "HgN/A
10:00 PM45 °FMostly cloudy.8 mph87%29.77 "HgN/A
9:30 PM43 °FPassing clouds.8 mph93%29.77 "HgN/A
9:00 PM43 °FPassing clouds.7 mph87%29.77 "HgN/A
8:30 PM43 °FClear.6 mph93%29.80 "Hg10 mi
8:00 PM43 °FClear.6 mph93%29.80 "Hg10 mi
7:30 PM43 °FClear.6 mph93%29.80 "Hg10 mi
7:00 PM43 °FPassing clouds.6 mph93%29.80 "HgN/A
6:30 PM43 °FPassing clouds.6 mph93%29.80 "HgN/A
6:00 PM43 °FPassing clouds.6 mph93%29.83 "HgN/A
5:30 PM43 °FOvercast.6 mph93%29.83 "HgN/A
5:00 PM43 °FPassing clouds.7 mph93%29.83 "HgN/A
4:30 PM45 °FOvercast.7 mph87%29.83 "HgN/A
4:00 PM43 °FPassing clouds.3 mph93%29.83 "HgN/A
3:30 PM43 °FPartly cloudy.8 mph93%29.83 "HgN/A
3:00 PM43 °FMore clouds than sun.8 mph93%29.80 "HgN/A
2:30 PM43 °FMostly cloudy.8 mph93%29.80 "HgN/A
2:00 PM43 °FMostly cloudy.9 mph93%29.80 "HgN/A
1:30 PM43 °FLight rain. Low clouds.8 mph93%29.80 "Hg5 mi
1:00 PM43 °FLight rain. Mostly cloudy.7 mph93%29.77 "Hg5 mi
12:30 PM41 °FPartly sunny.7 mph100%29.77 "Hg4 mi
12:00 PM41 °FLight rain. Low clouds.7 mph100%29.80 "Hg4 mi
11:30 AM41 °FLight rain. Low clouds.7 mph93%29.80 "Hg4 mi
11:00 AM41 °FLight rain. Fog.6 mph93%29.80 "Hg3 mi
10:30 AM41 °FLight rain. Low clouds.7 mph93%29.80 "Hg5 mi
10:00 AM39 °FLight rain. Low clouds.6 mph93%29.80 "Hg5 mi
9:30 AM39 °FLow clouds.5 mph93%29.80 "Hg6 mi
9:00 AM37 °FMore clouds than sun.5 mph93%29.80 "Hg5 mi
8:30 AM37 °FMore clouds than sun.5 mph93%29.77 "Hg4 mi
8:00 AM36 °FLight rain. Mostly cloudy.6 mph100%29.77 "Hg4 mi
7:30 AM36 °FLight rain. Passing clouds.6 mph93%29.77 "Hg5 mi
7:00 AM36 °FLight rain. Passing clouds.6 mph93%29.77 "HgN/A
6:30 AM36 °FPassing clouds.6 mph87%29.77 "HgN/A
6:00 AM34 °FLight rain. Partly cloudy.6 mph93%29.77 "Hg6 mi
5:30 AM34 °FLight rain. Passing clouds.6 mph93%29.77 "Hg6 mi
4:30 AM34 °FPartly cloudy.5 mph93%29.77 "HgN/A
4:00 AM34 °FPassing clouds.6 mph93%29.77 "HgN/A
Weather by CustomWeather, © 2014

See weather overviewHow to use our weather pages